Total_Precipitation_Accumulation
0.13 0.10 0.11 0.08 0.09 0.11 0.12 0.12 0.14 0.14 0.12 0.12 0.14 0.17 0.16 0.11 0.10 0.09 0.09 0.11 0.13 0.18 0.21 0.21 0.24 0.27 0.27 0.24 0.19 0.15 0.13 0.13 0.14 0.18 0.24 0.33 0.42 0.43 0.47 0.46 0.58 0.63 0.39
0.12 0.08 0.08 0.06 0.07 0.10 0.11 0.12 0.12 0.12 0.10 0.11 0.12 0.14 0.13 0.12 0.11 0.11 0.10 0.11 0.14 0.17 0.19 0.18 0.19 0.22 0.21 0.15 0.13 0.11 0.09 0.12 0.20 0.32 0.41 0.42 0.52 0.51 0.54 0.51 0.71 0.92 0.47
0.12 0.08 0.07 0.08 0.07 0.08 0.09 0.11 0.12 0.11 0.11 0.11 0.11 0.12 0.12 0.12 0.12 0.12 0.12 0.15 0.20 0.24 0.23 0.21 0.22 0.23 0.20 0.15 0.12 0.10 0.11 0.19 0.34 0.58 0.91 0.89 0.78 0.64 0.59 0.48 0.49 0.50 0.44
0.12 0.07 0.05 0.07 0.07 0.07 0.08 0.10 0.13 0.13 0.11 0.11 0.12 0.12 0.13 0.12 0.12 0.12 0.13 0.17 0.23 0.28 0.28 0.27 0.27 0.23 0.19 0.15 0.14 0.14 0.17 0.28 0.50 0.84 1.40 1.28 1.08 0.93 0.75 0.55 0.46 0.43 0.45
0.14 0.08 0.06 0.07 0.06 0.07 0.08 0.09 0.13 0.14 0.12 0.12 0.13 0.13 0.13 0.13 0.13 0.15 0.17 0.18 0.21 0.26 0.26 0.20 0.18 0.17 0.18 0.15 0.15 0.18 0.26 0.44 0.73 1.13 1.64 1.73 1.63 1.25 0.84 0.61 0.55 0.54 0.55
0.19 0.10 0.06 0.08 0.08 0.09 0.11 0.12 0.14 0.14 0.14 0.15 0.16 0.17 0.18 0.17 0.17 0.19 0.24 0.25 0.24 0.25 0.22 0.18 0.17 0.16 0.18 0.15 0.16 0.24 0.38 0.62 0.84 1.24 1.73 1.93 1.57 1.32 1.01 0.81 0.70 0.65 0.59
0.23 0.15 0.09 0.10 0.12 0.15 0.18 0.20 0.22 0.22 0.21 0.22 0.23 0.24 0.23 0.22 0.23 0.24 0.26 0.28 0.26 0.26 0.24 0.21 0.22 0.20 0.18 0.16 0.18 0.26 0.41 0.64 0.90 1.68 1.83 1.81 1.65 1.38 1.19 1.01 0.81 0.70 0.62
0.29 0.20 0.16 0.13 0.18 0.24 0.27 0.29 0.31 0.29 0.26 0.26 0.28 0.29 0.26 0.24 0.24 0.24 0.25 0.27 0.29 0.32 0.31 0.24 0.18 0.15 0.14 0.16 0.16 0.23 0.39 0.51 0.74 1.32 1.65 1.59 1.33 1.21 1.24 1.03 0.89 0.75 0.65
0.47 0.32 0.25 0.21 0.22 0.30 0.37 0.35 0.33 0.31 0.30 0.32 0.36 0.38 0.35 0.30 0.26 0.26 0.30 0.31 0.31 0.31 0.27 0.20 0.16 0.14 0.14 0.15 0.16 0.21 0.35 0.52 0.75 1.13 1.29 1.40 1.14 1.13 1.30 1.19 0.97 0.80 0.72
0.71 0.54 0.44 0.40 0.38 0.37 0.39 0.41 0.40 0.37 0.38 0.38 0.39 0.39 0.37 0.30 0.30 0.33 0.33 0.34 0.30 0.30 0.30 0.26 0.23 0.22 0.21 0.20 0.22 0.25 0.34 0.43 0.62 0.94 1.53 1.53 1.15 1.33 1.43 1.26 1.09 0.96 0.80
0.78 0.77 0.74 0.62 0.58 0.56 0.48 0.42 0.48 0.43 0.41 0.39 0.38 0.37 0.38 0.42 0.50 0.50 0.42 0.42 0.43 0.44 0.44 0.40 0.37 0.35 0.31 0.28 0.31 0.35 0.33 0.36 0.68 1.20 1.78 1.62 1.34 1.53 1.55 1.35 1.21 1.14 1.02
1.03 1.08 1.08 0.98 0.86 0.80 0.74 0.76 0.77 0.66 0.58 0.51 0.58 0.55 0.52 0.77 0.87 0.76 0.80 0.74 0.70 0.64 0.56 0.55 0.51 0.47 0.42 0.38 0.45 0.44 0.38 0.50 0.96 1.60 1.66 1.25 1.44 1.74 1.79 1.60 1.43 1.39 1.34
1.42 1.19 1.07 1.15 1.15 1.22 1.30 1.14 1.13 1.11 1.05 0.93 1.04 0.97 0.99 1.15 1.06 1.08 1.15 1.01 0.88 0.79 0.75 0.82 0.71 0.58 0.53 0.58 0.66 0.60 0.59 0.69 0.99 1.51 1.60 1.44 1.64 1.94 2.07 1.92 1.69 1.61 1.62
1.73 1.53 1.29 1.22 1.20 1.35 1.52 1.46 1.42 1.36 1.30 1.23 1.28 1.14 1.31 1.46 1.55 1.57 1.67 1.49 1.38 1.28 1.30 1.25 1.15 0.95 0.85 0.82 0.82 0.86 0.91 0.88 1.07 1.38 1.49 1.31 1.47 1.87 2.26 2.24 1.99 1.86 1.83
2.08 1.90 1.69 1.47 1.41 1.50 1.66 1.69 1.65 1.68 1.61 1.69 1.81 1.62 1.62 1.63 1.73 2.01 1.99 2.10 1.78 1.76 1.80 1.70 1.52 1.42 1.28 1.15 1.08 1.09 1.14 1.10 1.18 1.35 1.35 1.35 1.46 1.74 2.15 2.33 2.28 2.28 2.21
2.59 2.26 2.04 1.92 1.72 1.63 1.67 1.79 1.81 1.78 1.92 2.01 2.15 2.03 2.03 2.08 2.21 2.53 2.56 2.48 2.22 2.25 2.44 2.47 2.24 2.00 1.80 1.69 1.49 1.46 1.45 1.48 1.60 1.63 1.58 1.54 1.45 1.51 1.91 2.28 2.51 2.69 2.64
2.79 2.68 2.49 2.36 2.26 2.00 1.89 2.04 2.14 2.02 2.03 2.09 2.30 2.42 2.41 2.46 2.70 2.73 2.94 2.88 2.71 2.67 2.65 2.63 2.80 2.77 2.35 2.06 1.89 1.87 1.90 1.85 1.89 1.94 1.98 1.99 1.77 1.65 1.75 2.02 2.26 2.43 2.51
2.97 2.76 2.70 2.43 2.32 2.41 2.34 2.47 2.51 2.58 2.65 2.56 2.62 2.88 2.94 2.96 3.02 3.00 2.96 2.97 2.93 2.93 3.15 3.22 3.14 3.08 2.90 2.61 2.41 2.19 2.09 2.14 1.99 1.95 1.96 2.05 2.12 1.83 1.66 1.65 1.79 1.94 2.20
2.48 2.57 2.67 2.61 2.49 2.47 2.62 2.88 3.02 3.19 3.39 3.55 3.54 3.75 3.69 3.46 3.39 3.43 3.46 3.54 3.41 3.44 3.42 3.28 3.51 3.42 3.25 2.96 2.53 2.28 2.09 2.11 2.00 1.76 1.78 1.90 1.99 1.89 1.80 1.63 1.67 1.80 2.08
2.36 2.52 2.69 2.85 2.96 2.88 2.90 3.07 3.43 3.62 3.78 4.14 4.22 4.23 4.29 4.26 4.16 4.13 4.06 4.06 3.94 3.85 3.73 3.65 3.62 3.40 3.22 2.95 2.46 2.21 2.02 1.81 1.74 1.74 1.57 1.60 1.68 1.61 1.68 1.68 1.73 1.65 1.83
2.61 2.78 2.76 2.88 3.13 3.35 3.70 3.67 3.84 4.24 4.59 4.74 4.91 4.92 4.80 4.66 4.60 4.44 4.33 4.35 4.18 4.03 3.84 3.70 3.58 3.47 3.15 2.91 2.80 2.44 1.96 1.69 1.57 1.48 1.46 1.45 1.41 1.45 1.63 1.64 1.62 1.58 1.56
2.66 2.89 3.01 3.10 3.45 3.92 4.45 4.96 5.34 5.68 5.67 5.79 5.77 5.65 5.34 5.12 4.96 4.74 4.70 4.56 4.32 4.15 3.92 3.71 3.58 3.48 3.20 3.02 2.99 2.90 2.30 1.84 1.45 1.16 1.20 1.23 1.25 1.33 1.40 1.38 1.37 1.39 1.44
2.67 2.92 3.10 3.39 3.95 4.77 5.26 5.71 6.24 6.54 6.30 6.06 5.78 5.69 5.60 5.49 5.35 5.14 5.01 4.70 4.45 4.18 3.87 3.59 3.41 3.32 3.21 3.11 2.95 3.02 2.61 2.10 1.65 1.30 1.11 1.05 1.12 1.25 1.29 1.30 1.27 1.21 1.28
2.75 2.88 3.07 3.62 4.30 4.96 5.48 6.07 6.63 6.89 6.96 6.79 6.25 5.76 5.34 5.04 4.78 4.61 4.55 4.34 4.07 3.77 3.54 3.28 3.10 3.00 3.08 2.94 2.83 2.64 2.43 2.15 1.91 1.59 1.26 1.11 1.10 1.15 1.22 1.23 1.24 1.25 1.25
2.40 2.85 3.19 3.76 4.40 5.04 5.74 6.45 6.87 7.12 7.14 6.77 5.99 5.21 4.68 4.36 4.06 3.80 3.70 3.57 3.39 3.16 2.95 2.87 2.84 2.73 2.67 2.57 2.43 2.35 2.27 2.15 1.90 1.67 1.43 1.21 1.16 1.16 1.19 1.23 1.34 1.34 1.34
2.26 2.64 3.12 3.44 4.04 4.70 5.28 5.82 6.01 6.19 6.15 5.75 5.32 4.84 4.40 3.86 3.37 3.00 2.83 2.71 2.58 2.45 2.41 2.41 2.42 2.36 2.32 2.30 2.26 2.16 2.08 2.07 1.93 1.81 1.58 1.36 1.34 1.26 1.21 1.19 1.20 1.25 1.30